Location: Halfweg
(53.1000°N, 6.6000°E)
Time: 11:33:49
(UTC+00:00)

Cosmos 1486 Rocket - Pass Details

Date: 15 May 2026
Orbit: 754 x 779 km, 74.1° (Epoch: 8 June)

Event Time Altitude Azimuth Distance (km) Brightness Sun altitude
Rises 20:10:55 0° 335° (NNW) 3,245 8.8 -6.1°
Reaches altitude 10° 20:13:20 10° 339° (NNW) 2,319 7.7 -6.3°
Maximum altitude 20:18:32 59° 59° (ENE) 891 4.3 -6.9°
Drops below altitude 10° 20:23:45 10° 139° (SE) 2,320 5.8 -7.4°
Enters shadow 20:23:56 - 140° (SE) 2,393 5.9 -7.5°
